Time,TemperatureF,DewpointF,PressureIn,WindDirection,WindDirectionDegrees,WindSpeedMPH,WindSpeedGustMPH,Humidity,HourlyPrecipIn,Conditions,Clouds,dailyrainin,SoftwareType,DateUTC
2013-08-09 00:00:00,65.1,58.4,29.99,NNE,22,0.0,0.0,79,0.00,,,-99.99,open2300 version1.11,2013-08-09 04:00:00,
2013-08-09 00:05:00,65.1,58.4,29.99,NNE,22,0.0,0.0,79,0.00,,,-99.99,open2300 version1.11,2013-08-09 04:05:00,
2013-08-09 00:10:00,65.1,58.4,29.99,NNE,22,0.0,0.0,79,0.00,,,-99.99,open2300 version1.11,2013-08-09 04:10:00,
2013-08-09 00:15:00,65.1,58.4,29.99,NNE,22,0.0,0.0,79,0.00,,,-99.99,open2300 version1.11,2013-08-09 04:15:00,
2013-08-09 00:20:00,64.9,58.6,29.99,NNE,22,0.0,0.0,80,0.00,,,-99.99,open2300 version1.11,2013-08-09 04:20:00,
2013-08-09 00:25:00,64.8,58.5,29.98,NNE,22,0.0,0.0,80,0.00,,,-99.99,open2300 version1.11,2013-08-09 04:25:00,
2013-08-09 00:30:00,64.6,58.3,29.98,NNE,22,0.0,0.0,80,0.00,,,-99.99,open2300 version1.11,2013-08-09 04:30:00,
2013-08-09 00:35:00,64.6,58.6,29.98,NNE,22,0.0,0.0,81,0.00,,,-99.99,open2300 version1.11,2013-08-09 04:35:00,
2013-08-09 00:40:00,64.4,58.4,29.99,NNE,22,0.0,0.0,81,0.00,,,-99.99,open2300 version1.11,2013-08-09 04:40:00,
2013-08-09 00:45:00,64.4,58.4,29.98,NNE,22,0.0,0.0,81,0.00,,,-99.99,open2300 version1.11,2013-08-09 04:45:00,
2013-08-09 00:50:00,64.2,58.3,29.99,NNE,22,0.0,0.0,81,0.00,,,-99.99,open2300 version1.11,2013-08-09 04:50:00,
2013-08-09 00:55:00,64.2,58.3,29.98,NNE,22,0.0,0.0,81,0.00,,,-99.99,open2300 version1.11,2013-08-09 04:55:00,
2013-08-09 01:05:00,64.2,58.3,29.98,NNE,22,0.0,0.0,81,0.00,,,-99.99,open2300 version1.11,2013-08-09 05:05:00,
2013-08-09 01:10:00,64.0,58.1,29.98,NNE,22,0.0,0.0,81,0.00,,,-99.99,open2300 version1.11,2013-08-09 05:10:00,
2013-08-09 01:15:00,63.9,58.2,29.98,NNE,22,0.0,0.0,82,0.00,,,-99.99,open2300 version1.11,2013-08-09 05:15:00,
2013-08-09 01:20:00,63.7,58.1,29.98,NNE,22,0.0,0.0,82,0.00,,,-99.99,open2300 version1.11,2013-08-09 05:20:00,
2013-08-09 01:25:00,63.7,58.1,29.98,NNE,22,0.0,0.0,82,0.00,,,-99.99,open2300 version1.11,2013-08-09 05:25:00,
2013-08-09 01:30:00,63.7,58.1,29.97,NNE,22,0.0,0.0,82,0.00,,,-99.99,open2300 version1.11,2013-08-09 05:30:00,
2013-08-09 01:35:00,63.5,57.9,29.97,NNE,22,0.0,0.0,82,0.00,,,-99.99,open2300 version1.11,2013-08-09 05:35:00,
2013-08-09 01:40:00,63.5,57.5,29.98,NNE,22,0.0,0.0,81,0.00,,,-99.99,open2300 version1.11,2013-08-09 05:40:00,
2013-08-09 01:45:00,63.3,57.4,29.98,NNE,22,0.0,0.0,81,0.00,,,-99.99,open2300 version1.11,2013-08-09 05:45:00,
2013-08-09 01:50:00,63.3,57.4,29.98,NNE,22,0.0,0.0,81,0.00,,,-99.99,open2300 version1.11,2013-08-09 05:50:00,
2013-08-09 01:55:00,63.3,57.7,29.98,South,180,0.2,1.3,82,0.00,,,-99.99,open2300 version1.11,2013-08-09 05:55:00,
2013-08-09 02:00:00,63.1,57.5,29.98,South,180,0.0,0.0,82,0.00,,,-99.99,open2300 version1.11,2013-08-09 06:00:00,
2013-08-09 02:05:00,63.1,57.5,29.98,South,180,0.0,0.0,82,0.00,,,-99.99,open2300 version1.11,2013-08-09 06:05:00,
2013-08-09 02:10:00,63.1,57.5,29.98,South,180,0.0,0.0,82,0.00,,,-99.99,open2300 version1.11,2013-08-09 06:10:00,
2013-08-09 02:15:00,63.0,57.3,29.98,South,180,0.0,0.0,82,0.00,,,-99.99,open2300 version1.11,2013-08-09 06:15:00,
2013-08-09 02:20:00,62.8,57.2,29.98,South,180,0.0,0.0,82,0.00,,,-99.99,open2300 version1.11,2013-08-09 06:20:00,
2013-08-09 02:25:00,62.6,57.0,29.97,South,180,0.0,0.0,82,0.00,,,-99.99,open2300 version1.11,2013-08-09 06:25:00,
2013-08-09 02:30:00,62.4,56.8,29.98,South,180,0.0,0.0,82,0.00,,,-99.99,open2300 version1.11,2013-08-09 06:30:00,
2013-08-09 02:35:00,62.4,56.8,29.98,South,180,0.0,0.0,82,0.00,,,-99.99,open2300 version1.11,2013-08-09 06:35:00,
2013-08-09 02:40:00,62.4,56.8,29.98,South,180,0.0,0.0,82,0.00,,,-99.99,open2300 version1.11,2013-08-09 06:40:00,
2013-08-09 02:45:00,62.4,57.1,29.98,South,180,0.0,0.0,83,0.00,,,-99.99,open2300 version1.11,2013-08-09 06:45:00,
2013-08-09 02:50:00,62.4,57.1,29.98,South,180,0.0,0.0,83,0.00,,,-99.99,open2300 version1.11,2013-08-09 06:50:00,
2013-08-09 02:55:00,62.2,57.0,29.98,South,180,0.0,0.0,83,0.00,,,-99.99,open2300 version1.11,2013-08-09 06:55:00,
2013-08-09 03:00:00,62.2,56.6,29.98,South,180,0.0,0.0,82,0.00,,,-99.99,open2300 version1.11,2013-08-09 07:00:00,
2013-08-09 03:05:00,62.1,56.5,29.97,South,180,0.0,0.0,82,0.00,,,-99.99,open2300 version1.11,2013-08-09 07:05:00,
2013-08-09 03:10:00,61.7,56.2,29.96,South,180,0.0,0.0,82,0.00,,,-99.99,open2300 version1.11,2013-08-09 07:10:00,
2013-08-09 03:15:00,61.5,56.0,29.96,South,180,0.0,0.0,82,0.00,,,-99.99,open2300 version1.11,2013-08-09 07:15:00,
2013-08-09 03:20:00,61.3,55.8,29.96,South,180,0.0,0.0,82,0.00,,,-99.99,open2300 version1.11,2013-08-09 07:20:00,
2013-08-09 03:25:00,61.2,56.0,29.96,South,180,0.0,0.0,83,0.00,,,-99.99,open2300 version1.11,2013-08-09 07:25:00,
2013-08-09 03:30:00,61.0,55.8,29.96,South,180,0.0,0.0,83,0.00,,,-99.99,open2300 version1.11,2013-08-09 07:30:00,
2013-08-09 03:35:00,61.0,55.8,29.96,South,180,0.0,0.0,83,0.00,,,-99.99,open2300 version1.11,2013-08-09 07:35:00,
2013-08-09 03:40:00,61.0,55.8,29.96,South,180,0.0,0.0,83,0.00,,,-99.99,open2300 version1.11,2013-08-09 07:40:00,
2013-08-09 03:45:00,61.0,55.8,29.96,South,180,0.0,0.0,83,0.00,,,-99.99,open2300 version1.11,2013-08-09 07:45:00,
2013-08-09 03:50:00,60.6,55.8,29.96,South,180,0.0,0.0,84,0.00,,,-99.99,open2300 version1.11,2013-08-09 07:50:00,
2013-08-09 03:55:00,60.6,55.8,29.96,South,180,0.0,0.0,84,0.00,,,-99.99,open2300 version1.11,2013-08-09 07:55:00,
2013-08-09 04:00:00,60.4,55.6,29.96,South,180,0.0,0.0,84,0.00,,,-99.99,open2300 version1.11,2013-08-09 08:00:00,
2013-08-09 04:05:00,60.4,55.6,29.96,South,180,0.0,0.0,84,0.00,,,-99.99,open2300 version1.11,2013-08-09 08:05:00,
2013-08-09 04:10:00,60.4,55.6,29.96,South,180,0.0,0.0,84,0.00,,,-99.99,open2300 version1.11,2013-08-09 08:10:00,
2013-08-09 04:15:00,60.4,55.6,29.96,South,180,0.0,0.0,84,0.00,,,-99.99,open2300 version1.11,2013-08-09 08:15:00,
2013-08-09 04:20:00,60.3,55.4,29.96,South,180,0.0,0.0,84,0.00,,,-99.99,open2300 version1.11,2013-08-09 08:20:00,
2013-08-09 04:25:00,60.1,55.6,29.96,South,180,0.0,0.0,85,0.00,,,-99.99,open2300 version1.11,2013-08-09 08:25:00,
2013-08-09 04:30:00,60.1,55.6,29.96,South,180,0.0,0.0,85,0.00,,,-99.99,open2300 version1.11,2013-08-09 08:30:00,
2013-08-09 04:35:00,60.1,55.6,29.96,South,180,0.0,0.0,85,0.00,,,-99.99,open2300 version1.11,2013-08-09 08:35:00,
2013-08-09 04:40:00,60.1,55.6,29.96,South,180,0.0,0.0,85,0.00,,,-99.99,open2300 version1.11,2013-08-09 08:40:00,
2013-08-09 04:45:00,60.1,55.6,29.96,South,180,0.0,0.0,85,0.00,,,-99.99,open2300 version1.11,2013-08-09 08:45:00,
2013-08-09 04:50:00,60.1,55.9,29.97,South,180,0.0,0.0,86,0.00,,,-99.99,open2300 version1.11,2013-08-09 08:50:00,
2013-08-09 04:55:00,59.9,55.7,29.97,South,180,0.0,0.0,86,0.00,,,-99.99,open2300 version1.11,2013-08-09 08:55:00,
2013-08-09 05:00:00,59.9,55.7,29.97,South,180,0.0,0.0,86,0.00,,,-99.99,open2300 version1.11,2013-08-09 09:00:00,
2013-08-09 05:05:00,59.7,55.5,29.97,South,180,0.0,0.0,86,0.00,,,-99.99,open2300 version1.11,2013-08-09 09:05:00,
2013-08-09 05:10:00,59.7,55.5,29.96,South,180,0.0,0.0,86,0.00,,,-99.99,open2300 version1.11,2013-08-09 09:10:00,
2013-08-09 05:15:00,59.7,55.5,29.97,South,180,0.0,0.0,86,0.00,,,-99.99,open2300 version1.11,2013-08-09 09:15:00,
2013-08-09 05:20:00,59.7,55.5,29.97,South,180,0.0,0.0,86,0.00,,,-99.99,open2300 version1.11,2013-08-09 09:20:00,
2013-08-09 05:25:00,59.7,55.5,29.97,South,180,0.0,0.0,86,0.00,,,-99.99,open2300 version1.11,2013-08-09 09:25:00,
2013-08-09 05:30:00,59.5,55.4,29.97,South,180,0.0,0.0,86,0.00,,,-99.99,open2300 version1.11,2013-08-09 09:30:00,
2013-08-09 05:35:00,59.5,55.4,29.97,South,180,0.0,0.0,86,0.00,,,-99.99,open2300 version1.11,2013-08-09 09:35:00,
2013-08-09 05:40:00,59.5,55.4,29.97,South,180,0.0,0.0,86,0.00,,,-99.99,open2300 version1.11,2013-08-09 09:40:00,
2013-08-09 05:45:00,59.5,55.4,29.97,South,180,0.0,0.0,86,0.00,,,-99.99,open2300 version1.11,2013-08-09 09:45:00,
2013-08-09 05:50:00,59.5,55.4,29.98,South,180,0.0,0.0,86,0.00,,,-99.99,open2300 version1.11,2013-08-09 09:50:00,
2013-08-09 05:55:00,59.5,55.4,29.97,South,180,0.0,0.0,86,0.00,,,-99.99,open2300 version1.11,2013-08-09 09:55:00,
2013-08-09 06:00:00,59.5,55.4,29.98,South,180,0.0,0.0,86,0.00,,,-99.99,open2300 version1.11,2013-08-09 10:00:00,
2013-08-09 06:05:00,59.4,55.2,29.98,South,180,0.0,0.0,86,0.00,,,-99.99,open2300 version1.11,2013-08-09 10:05:00,
2013-08-09 06:10:00,59.4,55.2,29.97,South,180,0.0,0.0,86,0.00,,,-99.99,open2300 version1.11,2013-08-09 10:10:00,
2013-08-09 06:15:00,59.2,55.0,29.98,South,180,0.0,0.0,86,0.00,,,-99.99,open2300 version1.11,2013-08-09 10:15:00,
2013-08-09 06:20:00,59.2,55.0,29.98,South,180,0.0,0.0,86,0.00,,,-99.99,open2300 version1.11,2013-08-09 10:20:00,
2013-08-09 06:25:00,59.2,55.0,29.98,South,180,0.0,0.0,86,0.00,,,-99.99,open2300 version1.11,2013-08-09 10:25:00,
2013-08-09 06:30:00,59.2,55.0,29.98,South,180,0.0,0.0,86,0.00,,,-99.99,open2300 version1.11,2013-08-09 10:30:00,
2013-08-09 06:35:00,59.0,54.8,29.98,South,180,0.0,0.0,86,0.00,,,-99.99,open2300 version1.11,2013-08-09 10:35:00,
2013-08-09 06:40:00,58.8,54.6,29.97,South,180,0.0,0.0,86,0.00,,,-99.99,open2300 version1.11,2013-08-09 10:40:00,
2013-08-09 06:45:00,58.8,54.6,29.97,South,180,0.0,0.0,86,0.00,,,-99.99,open2300 version1.11,2013-08-09 10:45:00,
2013-08-09 06:50:00,58.6,54.5,29.98,South,180,0.0,0.0,86,0.00,,,-99.99,open2300 version1.11,2013-08-09 10:50:00,
2013-08-09 06:55:00,58.8,55.0,29.98,South,180,0.0,0.0,87,0.00,,,-99.99,open2300 version1.11,2013-08-09 10:55:00,
2013-08-09 07:00:00,58.6,54.5,29.97,South,180,0.0,0.0,86,0.00,,,-99.99,open2300 version1.11,2013-08-09 11:00:00,
2013-08-09 07:05:00,58.8,55.0,29.97,South,180,0.0,0.0,87,0.00,,,-99.99,open2300 version1.11,2013-08-09 11:05:00,
2013-08-09 07:10:00,58.8,55.0,29.98,South,180,0.0,0.0,87,0.00,,,-99.99,open2300 version1.11,2013-08-09 11:10:00,
2013-08-09 07:15:00,58.8,55.0,29.98,South,180,0.0,0.0,87,0.00,,,-99.99,open2300 version1.11,2013-08-09 11:15:00,
2013-08-09 07:20:00,58.8,55.0,29.97,South,180,0.0,0.0,87,0.00,,,-99.99,open2300 version1.11,2013-08-09 11:20:00,
2013-08-09 07:25:00,58.8,55.0,29.97,South,180,0.0,0.0,87,0.00,,,-99.99,open2300 version1.11,2013-08-09 11:25:00,
2013-08-09 07:30:00,59.0,55.1,29.98,South,180,0.0,0.0,87,0.00,,,-99.99,open2300 version1.11,2013-08-09 11:30:00,
2013-08-09 07:35:00,59.0,55.1,29.98,South,180,0.0,0.0,87,0.00,,,-99.99,open2300 version1.11,2013-08-09 11:35:00,
2013-08-09 07:40:00,59.0,55.1,29.98,South,180,0.0,0.0,87,0.00,,,-99.99,open2300 version1.11,2013-08-09 11:40:00,
2013-08-09 07:45:00,59.0,55.1,29.98,South,180,0.0,0.0,87,0.00,,,-99.99,open2300 version1.11,2013-08-09 11:45:00,
2013-08-09 07:50:00,59.2,55.3,29.98,South,180,0.0,0.0,87,0.00,,,-99.99,open2300 version1.11,2013-08-09 11:50:00,
2013-08-09 07:55:00,59.2,55.3,29.98,South,180,0.0,0.0,87,0.00,,,-99.99,open2300 version1.11,2013-08-09 11:55:00,
2013-08-09 08:00:00,59.2,55.3,29.98,South,180,0.0,0.0,87,0.00,,,-99.99,open2300 version1.11,2013-08-09 12:00:00,
2013-08-09 08:05:00,59.4,55.5,29.98,South,180,0.0,0.0,87,0.00,,,-99.99,open2300 version1.11,2013-08-09 12:05:00,
2013-08-09 08:10:00,59.5,55.7,29.98,South,180,0.0,0.0,87,0.00,,,-99.99,open2300 version1.11,2013-08-09 12:10:00,
2013-08-09 08:15:00,59.7,55.9,29.98,South,180,0.0,0.0,87,0.00,,,-99.99,open2300 version1.11,2013-08-09 12:15:00,
2013-08-09 08:20:00,59.9,56.0,29.98,South,180,0.0,0.0,87,0.00,,,-99.99,open2300 version1.11,2013-08-09 12:20:00,
2013-08-09 08:25:00,60.1,56.2,29.98,South,180,0.0,0.0,87,0.00,,,-99.99,open2300 version1.11,2013-08-09 12:25:00,
2013-08-09 08:30:00,60.1,56.2,29.98,South,180,0.0,0.0,87,0.00,,,-99.99,open2300 version1.11,2013-08-09 12:30:00,
2013-08-09 08:35:00,60.1,56.2,29.98,South,180,0.0,0.0,87,0.00,,,-99.99,open2300 version1.11,2013-08-09 12:35:00,
2013-08-09 08:40:00,60.4,56.6,29.98,South,180,0.0,0.0,87,0.00,,,-99.99,open2300 version1.11,2013-08-09 12:40:00,
2013-08-09 08:45:00,60.6,56.8,29.98,South,180,0.0,0.0,87,0.00,,,-99.99,open2300 version1.11,2013-08-09 12:45:00,
2013-08-09 08:50:00,60.6,56.8,29.98,South,180,0.0,0.0,87,0.00,,,-99.99,open2300 version1.11,2013-08-09 12:50:00,
2013-08-09 08:55:00,61.0,57.1,29.98,South,180,0.0,0.0,87,0.00,,,-99.99,open2300 version1.11,2013-08-09 12:55:00,
2013-08-09 09:00:00,61.3,57.1,29.98,South,180,0.0,0.0,86,0.00,,,-99.99,open2300 version1.11,2013-08-09 13:00:00,
2013-08-09 09:05:00,61.7,57.8,29.98,South,180,0.0,0.0,87,0.00,,,-99.99,open2300 version1.11,2013-08-09 13:05:00,
2013-08-09 09:10:00,62.2,58.0,29.99,South,180,0.0,0.0,86,0.00,,,-99.99,open2300 version1.11,2013-08-09 13:10:00,
2013-08-09 09:15:00,62.4,57.8,29.98,South,180,0.0,0.0,85,0.00,,,-99.99,open2300 version1.11,2013-08-09 13:15:00,
2013-08-09 09:20:00,62.8,58.2,29.99,South,180,0.0,0.0,85,0.00,,,-99.99,open2300 version1.11,2013-08-09 13:20:00,
2013-08-09 09:25:00,63.1,58.5,29.99,South,180,0.0,0.0,85,0.00,,,-99.99,open2300 version1.11,2013-08-09 13:25:00,
2013-08-09 09:30:00,63.3,58.4,29.98,South,180,0.0,0.0,84,0.00,,,-99.99,open2300 version1.11,2013-08-09 13:30:00,
2013-08-09 09:35:00,63.5,58.6,29.98,South,180,0.0,0.0,84,0.00,,,-99.99,open2300 version1.11,2013-08-09 13:35:00,
2013-08-09 09:40:00,63.7,58.4,29.98,South,180,0.0,0.0,83,0.00,,,-99.99,open2300 version1.11,2013-08-09 13:40:00,
2013-08-09 09:45:00,63.9,58.6,29.98,South,180,0.0,0.0,83,0.00,,,-99.99,open2300 version1.11,2013-08-09 13:45:00,
2013-08-09 09:50:00,64.2,59.0,29.98,South,180,0.0,0.0,83,0.00,,,-99.99,open2300 version1.11,2013-08-09 13:50:00,
2013-08-09 09:55:00,64.6,58.6,29.98,South,180,0.0,0.0,81,0.00,,,-99.99,open2300 version1.11,2013-08-09 13:55:00,
2013-08-09 10:00:00,65.1,58.8,29.98,South,180,0.0,0.0,80,0.00,,,-99.99,open2300 version1.11,2013-08-09 14:00:00,
2013-08-09 10:05:00,65.5,58.8,29.98,South,180,0.0,0.0,79,0.00,,,-99.99,open2300 version1.11,2013-08-09 14:05:00,
2013-08-09 10:10:00,66.0,59.0,29.98,South,180,0.0,0.0,78,0.00,,,-99.99,open2300 version1.11,2013-08-09 14:10:00,
2013-08-09 10:15:00,66.4,59.0,29.98,South,180,0.0,0.0,77,0.00,,,-99.99,open2300 version1.11,2013-08-09 14:15:00,
2013-08-09 10:20:00,66.9,59.1,29.99,South,180,0.0,0.0,76,0.00,,,-99.99,open2300 version1.11,2013-08-09 14:20:00,
2013-08-09 10:25:00,67.1,58.9,29.99,South,180,0.0,0.0,75,0.00,,,-99.99,open2300 version1.11,2013-08-09 14:25:00,
2013-08-09 10:30:00,67.8,59.6,29.98,South,180,0.0,0.0,75,0.00,,,-99.99,open2300 version1.11,2013-08-09 14:30:00,
2013-08-09 10:35:00,68.2,59.6,29.98,South,180,0.0,0.5,74,0.00,,,-99.99,open2300 version1.11,2013-08-09 14:35:00,
2013-08-09 10:40:00,68.7,59.7,29.98,South,180,0.0,0.0,73,0.00,,,-99.99,open2300 version1.11,2013-08-09 14:40:00,
2013-08-09 10:45:00,69.1,60.0,29.98,South,180,0.0,0.0,73,0.00,,,-99.99,open2300 version1.11,2013-08-09 14:45:00,
2013-08-09 10:50:00,69.4,60.0,29.98,NE,40,0.2,2.0,72,0.00,,,-99.99,open2300 version1.11,2013-08-09 14:50:00,
2013-08-09 10:55:00,69.6,59.8,29.98,NE,45,0.2,1.6,71,0.00,,,-99.99,open2300 version1.11,2013-08-09 14:55:00,
2013-08-09 11:00:00,70.0,60.1,29.98,NE,45,0.1,1.1,71,0.00,,,-99.99,open2300 version1.11,2013-08-09 15:00:00,
2013-08-09 11:05:00,70.3,60.1,29.98,NE,45,0.0,0.0,70,0.00,,,-99.99,open2300 version1.11,2013-08-09 15:05:00,
2013-08-09 11:10:00,70.5,59.8,29.98,North,0,0.0,0.0,69,0.00,,,-99.99,open2300 version1.11,2013-08-09 15:10:00,
2013-08-09 11:15:00,70.9,59.8,29.98,North,0,0.0,0.7,68,0.00,,,-99.99,open2300 version1.11,2013-08-09 15:15:00,
2013-08-09 11:20:00,70.9,60.2,29.99,North,0,0.1,1.6,69,0.00,,,-99.99,open2300 version1.11,2013-08-09 15:20:00,
2013-08-09 11:25:00,71.2,60.1,29.98,SW,225,0.0,0.5,68,0.00,,,-99.99,open2300 version1.11,2013-08-09 15:25:00,
2013-08-09 11:30:00,71.4,60.3,29.99,SW,225,0.1,1.3,68,0.00,,,-99.99,open2300 version1.11,2013-08-09 15:30:00,
2013-08-09 11:35:00,71.4,60.3,29.98,SW,225,0.2,1.3,68,0.00,,,-99.99,open2300 version1.11,2013-08-09 15:35:00,
2013-08-09 11:40:00,71.8,60.2,29.99,SW,225,0.0,0.0,67,0.00,,,-99.99,open2300 version1.11,2013-08-09 15:40:00,
2013-08-09 11:45:00,72.1,60.1,29.99,SW,225,0.0,0.0,66,0.00,,,-99.99,open2300 version1.11,2013-08-09 15:45:00,
2013-08-09 11:50:00,72.3,60.3,29.99,SW,225,0.0,0.7,66,0.00,,,-99.99,open2300 version1.11,2013-08-09 15:50:00,
2013-08-09 11:55:00,72.5,60.0,29.99,SW,225,0.1,0.9,65,0.00,,,-99.99,open2300 version1.11,2013-08-09 15:55:00,
2013-08-09 12:00:00,72.5,60.0,29.99,NE,45,0.0,0.0,65,0.00,,,-99.99,open2300 version1.11,2013-08-09 16:00:00,
2013-08-09 12:05:00,72.7,60.2,29.99,NE,45,0.0,0.7,65,0.00,,,-99.99,open2300 version1.11,2013-08-09 16:05:00,
2013-08-09 12:10:00,72.9,60.4,29.99,NE,45,0.1,1.3,65,0.00,,,-99.99,open2300 version1.11,2013-08-09 16:10:00,
2013-08-09 12:15:00,73.0,60.1,29.99,South,180,0.1,1.6,64,0.00,,,-99.99,open2300 version1.11,2013-08-09 16:15:00,
2013-08-09 12:20:00,73.2,60.7,29.99,South,180,0.0,0.7,65,0.00,,,-99.99,open2300 version1.11,2013-08-09 16:20:00,
2013-08-09 12:25:00,73.2,60.3,29.99,South,180,0.0,0.0,64,0.00,,,-99.99,open2300 version1.11,2013-08-09 16:25:00,
2013-08-09 12:30:00,73.6,60.6,29.98,South,180,0.1,2.0,64,0.00,,,-99.99,open2300 version1.11,2013-08-09 16:30:00,
2013-08-09 12:35:00,73.8,60.8,29.98,South,180,0.3,1.6,64,0.00,,,-99.99,open2300 version1.11,2013-08-09 16:35:00,
2013-08-09 12:40:00,73.9,60.9,29.98,South,180,0.1,0.7,64,0.00,,,-99.99,open2300 version1.11,2013-08-09 16:40:00,
2013-08-09 12:45:00,74.1,60.7,29.98,SSW,202,0.9,4.2,63,0.00,,,-99.99,open2300 version1.11,2013-08-09 16:45:00,
2013-08-09 12:50:00,74.5,61.0,29.98,SSW,202,0.2,1.3,63,0.00,,,-99.99,open2300 version1.11,2013-08-09 16:50:00,
2013-08-09 12:55:00,74.8,60.9,29.98,SSW,202,0.1,0.7,62,0.00,,,-99.99,open2300 version1.11,2013-08-09 16:55:00,
2013-08-09 13:00:00,74.8,60.9,29.98,SSE,157,0.1,2.7,62,0.00,,,-99.99,open2300 version1.11,2013-08-09 17:00:00,
2013-08-09 13:05:00,75.0,61.1,29.98,NE,45,0.0,0.5,62,0.00,,,-99.99,open2300 version1.11,2013-08-09 17:05:00,
2013-08-09 13:10:00,75.2,60.9,29.97,NE,37,0.2,0.9,61,0.00,,,-99.99,open2300 version1.11,2013-08-09 17:10:00,
2013-08-09 13:15:00,75.6,61.2,29.97,SSE,157,0.0,0.0,61,0.00,,,-99.99,open2300 version1.11,2013-08-09 17:15:00,
2013-08-09 13:20:00,75.9,61.5,29.98,SSE,157,0.1,0.9,61,0.00,,,-99.99,open2300 version1.11,2013-08-09 17:20:00,
2013-08-09 13:25:00,75.9,61.5,29.98,SSE,157,0.0,0.0,61,0.00,,,-99.99,open2300 version1.11,2013-08-09 17:25:00,
2013-08-09 13:30:00,76.5,61.6,29.98,South,178,0.3,1.6,60,0.00,,,-99.99,open2300 version1.11,2013-08-09 17:30:00,
2013-08-09 13:35:00,76.8,61.9,29.98,South,180,0.2,1.6,60,0.00,,,-99.99,open2300 version1.11,2013-08-09 17:35:00,
2013-08-09 13:40:00,77.0,61.0,29.98,SSW,211,1.0,3.1,58,0.00,,,-99.99,open2300 version1.11,2013-08-09 17:40:00,
2013-08-09 13:45:00,77.4,61.4,29.98,SW,225,0.6,2.9,58,0.00,,,-99.99,open2300 version1.11,2013-08-09 17:45:00,
2013-08-09 13:50:00,77.5,61.6,29.98,SW,225,0.2,1.6,58,0.00,,,-99.99,open2300 version1.11,2013-08-09 17:50:00,
2013-08-09 13:55:00,77.7,61.8,29.98,SW,225,0.3,1.3,58,0.00,,,-99.99,open2300 version1.11,2013-08-09 17:55:00,
2013-08-09 14:00:00,77.9,61.4,29.98,SW,225,0.8,3.1,57,0.00,,,-99.99,open2300 version1.11,2013-08-09 18:00:00,
2013-08-09 14:05:00,78.1,61.6,29.98,SSW,200,1.1,3.6,57,0.00,,,-99.99,open2300 version1.11,2013-08-09 18:05:00,
2013-08-09 14:10:00,78.4,61.9,29.98,SW,225,0.5,2.0,57,0.00,,,-99.99,open2300 version1.11,2013-08-09 18:10:00,
2013-08-09 14:15:00,78.6,61.6,29.98,SW,225,0.3,2.2,56,0.00,,,-99.99,open2300 version1.11,2013-08-09 18:15:00,
2013-08-09 14:20:00,78.6,61.6,29.98,SW,225,0.7,2.7,56,0.00,,,-99.99,open2300 version1.11,2013-08-09 18:20:00,
2013-08-09 14:25:00,78.8,61.2,29.98,SSW,208,0.3,2.0,55,0.00,,,-99.99,open2300 version1.11,2013-08-09 18:25:00,
2013-08-09 14:30:00,79.0,61.9,29.98,SSW,202,0.4,2.0,56,0.00,,,-99.99,open2300 version1.11,2013-08-09 18:30:00,
2013-08-09 14:35:00,79.2,61.6,29.98,SW,225,1.4,4.5,55,0.00,,,-99.99,open2300 version1.11,2013-08-09 18:35:00,
2013-08-09 14:40:00,79.3,61.7,29.98,SW,225,0.8,3.8,55,0.00,,,-99.99,open2300 version1.11,2013-08-09 18:40:00,
2013-08-09 14:45:00,79.5,61.4,29.97,SW,225,1.2,4.7,54,0.00,,,-99.99,open2300 version1.11,2013-08-09 18:45:00,
2013-08-09 14:50:00,79.5,61.4,29.97,SW,225,0.3,1.8,54,0.00,,,-99.99,open2300 version1.11,2013-08-09 18:50:00,
2013-08-09 14:55:00,79.5,61.4,29.97,SSW,211,0.5,2.2,54,0.00,,,-99.99,open2300 version1.11,2013-08-09 18:55:00,
2013-08-09 15:00:00,79.7,61.0,29.97,SW,225,0.0,0.5,53,0.00,,,-99.99,open2300 version1.11,2013-08-09 19:00:00,
2013-08-09 15:05:00,79.9,61.7,29.97,SW,225,0.0,0.0,54,0.00,,,-99.99,open2300 version1.11,2013-08-09 19:05:00,
2013-08-09 15:10:00,79.9,61.7,29.97,SW,225,0.9,3.8,54,0.00,,,-99.99,open2300 version1.11,2013-08-09 19:10:00,
2013-08-09 15:15:00,79.9,61.7,29.97,SW,225,0.9,2.9,54,0.00,,,-99.99,open2300 version1.11,2013-08-09 19:15:00,
2013-08-09 15:20:00,80.1,61.3,29.97,SW,225,1.4,3.4,53,0.00,,,-99.99,open2300 version1.11,2013-08-09 19:20:00,
2013-08-09 15:25:00,80.2,61.5,29.97,SW,225,0.1,1.1,53,0.00,,,-99.99,open2300 version1.11,2013-08-09 19:25:00,
2013-08-09 15:30:00,80.2,61.5,29.97,SW,225,0.2,1.8,53,0.00,,,-99.99,open2300 version1.11,2013-08-09 19:30:00,
2013-08-09 15:35:00,80.4,61.1,29.97,SW,225,0.1,1.6,52,0.00,,,-99.99,open2300 version1.11,2013-08-09 19:35:00,
2013-08-09 15:40:00,80.4,61.7,29.96,SSW,206,1.3,5.6,53,0.00,,,-99.99,open2300 version1.11,2013-08-09 19:40:00,
2013-08-09 15:45:00,80.4,61.1,29.96,SSE,167,1.0,2.9,52,0.00,,,-99.99,open2300 version1.11,2013-08-09 19:45:00,
2013-08-09 15:50:00,80.4,61.1,29.97,SSE,157,0.2,2.0,52,0.00,,,-99.99,open2300 version1.11,2013-08-09 19:50:00,
2013-08-09 15:55:00,80.2,61.0,29.96,SSE,168,0.5,2.2,52,0.00,,,-99.99,open2300 version1.11,2013-08-09 19:55:00,
2013-08-09 16:00:00,80.1,60.8,29.96,SSE,157,0.3,2.0,52,0.00,,,-99.99,open2300 version1.11,2013-08-09 20:00:00,
2013-08-09 16:05:00,80.1,60.8,29.96,South,188,1.2,4.7,52,0.00,,,-99.99,open2300 version1.11,2013-08-09 20:05:00,
2013-08-09 16:10:00,80.1,60.8,29.95,SW,225,1.2,5.4,52,0.00,,,-99.99,open2300 version1.11,2013-08-09 20:10:00,
2013-08-09 16:15:00,79.9,60.7,29.95,SW,225,0.7,1.8,52,0.00,,,-99.99,open2300 version1.11,2013-08-09 20:15:00,
2013-08-09 16:20:00,80.2,61.0,29.95,SW,225,0.5,2.0,52,0.00,,,-99.99,open2300 version1.11,2013-08-09 20:20:00,
2013-08-09 16:25:00,80.2,61.5,29.95,SW,225,0.6,1.8,53,0.00,,,-99.99,open2300 version1.11,2013-08-09 20:25:00,
2013-08-09 16:30:00,80.2,61.0,29.95,SW,221,0.8,3.1,52,0.00,,,-99.99,open2300 version1.11,2013-08-09 20:30:00,
2013-08-09 16:35:00,79.9,60.7,29.95,South,173,0.9,4.9,52,0.00,,,-99.99,open2300 version1.11,2013-08-09 20:35:00,
2013-08-09 16:40:00,79.7,60.5,29.95,South,178,0.5,2.7,52,0.00,,,-99.99,open2300 version1.11,2013-08-09 20:40:00,
2013-08-09 16:45:00,79.7,61.0,29.95,SSW,213,0.9,4.2,53,0.00,,,-99.99,open2300 version1.11,2013-08-09 20:45:00,
2013-08-09 16:50:00,79.5,60.9,29.95,SW,225,0.3,3.1,53,0.00,,,-99.99,open2300 version1.11,2013-08-09 20:50:00,
2013-08-09 16:55:00,79.5,60.9,29.95,SW,225,0.3,1.8,53,0.00,,,-99.99,open2300 version1.11,2013-08-09 20:55:00,
2013-08-09 17:00:00,79.3,60.7,29.95,SW,225,0.8,2.9,53,0.00,,,-99.99,open2300 version1.11,2013-08-09 21:00:00,
2013-08-09 17:05:00,79.3,60.7,29.95,SW,225,0.7,2.9,53,0.00,,,-99.99,open2300 version1.11,2013-08-09 21:05:00,
2013-08-09 17:10:00,79.0,60.4,29.95,SW,225,0.6,2.5,53,0.00,,,-99.99,open2300 version1.11,2013-08-09 21:10:00,
2013-08-09 17:15:00,79.0,60.4,29.95,SW,225,0.4,1.8,53,0.00,,,-99.99,open2300 version1.11,2013-08-09 21:15:00,
2013-08-09 17:20:00,78.6,60.5,29.95,SW,225,0.4,2.0,54,0.00,,,-99.99,open2300 version1.11,2013-08-09 21:20:00,
2013-08-09 17:25:00,78.6,60.5,29.95,SW,225,0.8,2.5,54,0.00,,,-99.99,open2300 version1.11,2013-08-09 21:25:00,
2013-08-09 17:30:00,78.6,60.5,29.96,SW,225,0.2,1.6,54,0.00,,,-99.99,open2300 version1.11,2013-08-09 21:30:00,
2013-08-09 17:35:00,78.6,60.5,29.96,SSW,213,0.3,2.0,54,0.00,,,-99.99,open2300 version1.11,2013-08-09 21:35:00,
2013-08-09 17:40:00,78.4,60.9,29.96,SSW,202,0.1,0.9,55,0.00,,,-99.99,open2300 version1.11,2013-08-09 21:40:00,
2013-08-09 17:45:00,78.4,60.9,29.96,SW,225,0.8,2.9,55,0.00,,,-99.99,open2300 version1.11,2013-08-09 21:45:00,
2013-08-09 17:50:00,78.4,60.9,29.96,SW,225,0.0,0.7,55,0.00,,,-99.99,open2300 version1.11,2013-08-09 21:50:00,
2013-08-09 17:55:00,78.4,61.4,29.96,SW,225,0.1,1.3,56,0.00,,,-99.99,open2300 version1.11,2013-08-09 21:55:00,
2013-08-09 18:00:00,78.1,61.6,29.96,SW,225,0.0,0.0,57,0.00,,,-99.99,open2300 version1.11,2013-08-09 22:00:00,
2013-08-09 18:05:00,77.7,61.2,29.96,SW,225,0.2,2.5,57,0.00,,,-99.99,open2300 version1.11,2013-08-09 22:05:00,
2013-08-09 18:10:00,77.7,61.8,29.96,SW,225,0.2,2.0,58,0.00,,,-99.99,open2300 version1.11,2013-08-09 22:10:00,
2013-08-09 18:15:00,77.5,61.6,29.95,SW,225,0.0,0.7,58,0.00,,,-99.99,open2300 version1.11,2013-08-09 22:15:00,
2013-08-09 18:20:00,77.5,62.1,29.95,SW,225,0.0,0.9,59,0.00,,,-99.99,open2300 version1.11,2013-08-09 22:20:00,
2013-08-09 18:25:00,77.5,62.1,29.95,SW,225,0.3,1.8,59,0.00,,,-99.99,open2300 version1.11,2013-08-09 22:25:00,
2013-08-09 18:30:00,77.4,61.9,29.95,SW,225,0.3,2.0,59,0.00,,,-99.99,open2300 version1.11,2013-08-09 22:30:00,
2013-08-09 18:35:00,77.4,61.9,29.95,SW,225,1.0,2.7,59,0.00,,,-99.99,open2300 version1.11,2013-08-09 22:35:00,
2013-08-09 18:40:00,77.4,61.9,29.95,SW,225,0.1,1.1,59,0.00,,,-99.99,open2300 version1.11,2013-08-09 22:40:00,
2013-08-09 18:45:00,77.2,62.2,29.95,SW,225,0.1,1.3,60,0.00,,,-99.99,open2300 version1.11,2013-08-09 22:45:00,
2013-08-09 18:50:00,77.2,62.2,29.95,SW,225,0.2,1.6,60,0.00,,,-99.99,open2300 version1.11,2013-08-09 22:50:00,
2013-08-09 18:55:00,77.2,62.2,29.95,SW,225,0.2,2.2,60,0.00,,,-99.99,open2300 version1.11,2013-08-09 22:55:00,
2013-08-09 19:00:00,77.0,62.1,29.95,SW,225,0.1,1.3,60,0.00,,,-99.99,open2300 version1.11,2013-08-09 23:00:00,
2013-08-09 19:05:00,77.0,62.1,29.95,SW,225,0.4,2.2,60,0.00,,,-99.99,open2300 version1.11,2013-08-09 23:05:00,
2013-08-09 19:10:00,76.8,61.9,29.95,SW,225,0.3,1.8,60,0.00,,,-99.99,open2300 version1.11,2013-08-09 23:10:00,
2013-08-09 19:15:00,76.8,62.3,29.95,SW,225,0.1,0.9,61,0.00,,,-99.99,open2300 version1.11,2013-08-09 23:15:00,
2013-08-09 19:20:00,76.8,62.3,29.95,SW,225,0.1,1.1,61,0.00,,,-99.99,open2300 version1.11,2013-08-09 23:20:00,
2013-08-09 19:25:00,76.8,62.3,29.95,SW,225,0.0,0.0,61,0.00,,,-99.99,open2300 version1.11,2013-08-09 23:25:00,
2013-08-09 19:30:00,76.6,62.6,29.95,SW,225,0.0,0.0,62,0.00,,,-99.99,open2300 version1.11,2013-08-09 23:30:00,
2013-08-09 19:35:00,76.6,62.6,29.95,SW,225,0.0,0.7,62,0.00,,,-99.99,open2300 version1.11,2013-08-09 23:35:00,
2013-08-09 19:40:00,76.3,62.3,29.95,SW,225,0.0,0.5,62,0.00,,,-99.99,open2300 version1.11,2013-08-09 23:40:00,
2013-08-09 19:45:00,75.9,62.4,29.95,SW,225,0.0,0.0,63,0.00,,,-99.99,open2300 version1.11,2013-08-09 23:45:00,
2013-08-09 19:50:00,75.7,62.2,29.95,SW,225,0.0,0.0,63,0.00,,,-99.99,open2300 version1.11,2013-08-09 23:50:00,
2013-08-09 19:55:00,75.4,62.3,29.96,SW,225,0.0,0.0,64,0.00,,,-99.99,open2300 version1.11,2013-08-09 23:55:00,
2013-08-09 20:00:00,75.0,62.4,29.96,SW,225,0.0,0.0,65,0.00,,,-99.99,open2300 version1.11,2013-08-10 00:00:00,
2013-08-09 20:05:00,74.8,62.3,29.96,SW,225,0.0,0.0,65,0.00,,,-99.99,open2300 version1.11,2013-08-10 00:05:00,
2013-08-09 20:10:00,74.5,62.4,29.96,SW,225,0.0,0.0,66,0.00,,,-99.99,open2300 version1.11,2013-08-10 00:10:00,
2013-08-09 20:15:00,74.5,62.4,29.96,SW,225,0.0,0.0,66,0.00,,,-99.99,open2300 version1.11,2013-08-10 00:15:00,
2013-08-09 20:20:00,74.1,62.0,29.96,SW,225,0.0,0.0,66,0.00,,,-99.99,open2300 version1.11,2013-08-10 00:20:00,
2013-08-09 20:25:00,73.9,62.3,29.96,SW,225,0.0,0.0,67,0.00,,,-99.99,open2300 version1.11,2013-08-10 00:25:00,
2013-08-09 20:30:00,73.8,62.1,29.97,SW,225,0.0,0.0,67,0.00,,,-99.99,open2300 version1.11,2013-08-10 00:30:00,
2013-08-09 20:35:00,73.6,62.4,29.97,SW,225,0.0,0.0,68,0.00,,,-99.99,open2300 version1.11,2013-08-10 00:35:00,
2013-08-09 20:40:00,73.2,62.1,29.97,SW,225,0.0,0.0,68,0.00,,,-99.99,open2300 version1.11,2013-08-10 00:40:00,
2013-08-09 20:45:00,73.0,62.3,29.97,SW,225,0.0,0.0,69,0.00,,,-99.99,open2300 version1.11,2013-08-10 00:45:00,
2013-08-09 20:50:00,72.7,62.0,29.97,SW,225,0.0,0.0,69,0.00,,,-99.99,open2300 version1.11,2013-08-10 00:50:00,
2013-08-09 20:55:00,72.3,61.6,29.97,SW,225,0.0,0.0,69,0.00,,,-99.99,open2300 version1.11,2013-08-10 00:55:00,
2013-08-09 21:00:00,72.3,61.6,29.98,SW,225,0.0,0.0,69,0.00,,,-99.99,open2300 version1.11,2013-08-10 01:00:00,
2013-08-09 21:05:00,72.1,61.9,29.97,SW,225,0.0,0.0,70,0.00,,,-99.99,open2300 version1.11,2013-08-10 01:05:00,
2013-08-09 21:10:00,72.0,61.7,29.98,SW,225,0.0,0.0,70,0.00,,,-99.99,open2300 version1.11,2013-08-10 01:10:00,
2013-08-09 21:15:00,71.8,61.9,29.98,SW,225,0.0,0.0,71,0.00,,,-99.99,open2300 version1.11,2013-08-10 01:15:00,
2013-08-09 21:20:00,71.4,61.5,29.98,SW,225,0.0,0.0,71,0.00,,,-99.99,open2300 version1.11,2013-08-10 01:20:00,
2013-08-09 21:25:00,71.4,61.5,29.99,SW,225,0.0,0.0,71,0.00,,,-99.99,open2300 version1.11,2013-08-10 01:25:00,
2013-08-09 21:30:00,71.2,61.4,29.99,SW,225,0.0,0.0,71,0.00,,,-99.99,open2300 version1.11,2013-08-10 01:30:00,
2013-08-09 21:35:00,71.2,61.4,29.99,SW,225,0.0,0.0,71,0.00,,,-99.99,open2300 version1.11,2013-08-10 01:35:00,
2013-08-09 21:40:00,70.9,61.4,29.99,SW,225,0.0,0.0,72,0.00,,,-99.99,open2300 version1.11,2013-08-10 01:40:00,
2013-08-09 21:45:00,70.7,61.2,29.99,SW,225,0.0,0.0,72,0.00,,,-99.99,open2300 version1.11,2013-08-10 01:45:00,
2013-08-09 21:50:00,70.5,61.0,29.99,SW,225,0.0,0.0,72,0.00,,,-99.99,open2300 version1.11,2013-08-10 01:50:00,
2013-08-09 21:55:00,70.3,61.2,30.00,SW,225,0.0,0.0,73,0.00,,,-99.99,open2300 version1.11,2013-08-10 01:55:00,
2013-08-09 22:00:00,70.0,60.9,30.00,SW,225,0.0,0.0,73,0.00,,,-99.99,open2300 version1.11,2013-08-10 02:00:00,
2013-08-09 22:05:00,69.8,60.7,30.00,SW,225,0.0,0.0,73,0.00,,,-99.99,open2300 version1.11,2013-08-10 02:05:00,
2013-08-09 22:10:00,69.6,60.9,30.00,SW,225,0.0,0.0,74,0.00,,,-99.99,open2300 version1.11,2013-08-10 02:10:00,
2013-08-09 22:15:00,69.4,60.7,30.00,SW,225,0.0,0.0,74,0.00,,,-99.99,open2300 version1.11,2013-08-10 02:15:00,
2013-08-09 22:20:00,69.3,60.6,30.00,SW,225,0.0,0.0,74,0.00,,,-99.99,open2300 version1.11,2013-08-10 02:20:00,
2013-08-09 22:25:00,69.1,60.8,30.00,SW,225,0.0,0.0,75,0.00,,,-99.99,open2300 version1.11,2013-08-10 02:25:00,
2013-08-09 22:30:00,68.9,60.6,30.00,SW,225,0.0,0.0,75,0.00,,,-99.99,open2300 version1.11,2013-08-10 02:30:00,
2013-08-09 22:35:00,68.7,60.5,30.00,SW,225,0.0,0.0,75,0.00,,,-99.99,open2300 version1.11,2013-08-10 02:35:00,
2013-08-09 22:40:00,68.5,60.7,30.00,SW,225,0.0,0.0,76,0.00,,,-99.99,open2300 version1.11,2013-08-10 02:40:00,
2013-08-09 22:45:00,68.4,60.5,30.00,SW,225,0.0,0.0,76,0.00,,,-99.99,open2300 version1.11,2013-08-10 02:45:00,
2013-08-09 22:50:00,68.2,60.4,30.00,SW,225,0.0,0.0,76,0.00,,,-99.99,open2300 version1.11,2013-08-10 02:50:00,
2013-08-09 22:55:00,68.2,60.7,30.00,SW,225,0.0,0.0,77,0.00,,,-99.99,open2300 version1.11,2013-08-10 02:55:00,
2013-08-09 23:00:00,67.8,60.4,30.00,SW,225,0.0,0.0,77,0.00,,,-99.99,open2300 version1.11,2013-08-10 03:00:00,
2013-08-09 23:05:00,67.6,60.2,30.00,SW,225,0.0,0.0,77,0.00,,,-99.99,open2300 version1.11,2013-08-10 03:05:00,
2013-08-09 23:10:00,67.5,60.4,30.01,SW,225,0.0,0.0,78,0.00,,,-99.99,open2300 version1.11,2013-08-10 03:10:00,
2013-08-09 23:15:00,67.3,60.2,30.00,SW,225,0.0,0.0,78,0.00,,,-99.99,open2300 version1.11,2013-08-10 03:15:00,
2013-08-09 23:20:00,67.1,60.0,30.00,SW,225,0.0,0.0,78,0.00,,,-99.99,open2300 version1.11,2013-08-10 03:20:00,
2013-08-09 23:25:00,66.7,59.7,30.01,SW,225,0.0,0.0,78,0.00,,,-99.99,open2300 version1.11,2013-08-10 03:25:00,
2013-08-09 23:30:00,66.7,60.1,30.00,SW,225,0.0,0.0,79,0.00,,,-99.99,open2300 version1.11,2013-08-10 03:30:00,
2013-08-09 23:35:00,66.6,59.9,30.01,SW,225,0.0,0.0,79,0.00,,,-99.99,open2300 version1.11,2013-08-10 03:35:00,
2013-08-09 23:40:00,66.4,59.7,30.01,SW,225,0.0,0.0,79,0.00,,,-99.99,open2300 version1.11,2013-08-10 03:40:00,
2013-08-09 23:45:00,66.0,59.7,30.01,SW,225,0.0,0.0,80,0.00,,,-99.99,open2300 version1.11,2013-08-10 03:45:00,
2013-08-09 23:50:00,66.0,59.7,30.01,SW,225,0.0,0.0,80,0.00,,,-99.99,open2300 version1.11,2013-08-10 03:50:00,
2013-08-09 23:55:00,65.8,59.5,30.01,SW,225,0.0,0.0,80,0.00,,,-99.99,open2300 version1.11,2013-08-10 03:55:00,